CW8164 Weather Reports


Display with metric or nautical units.
time (UTC)temp
F
wind
direction
speed
MPH
gust
MPH
rain 1hr
in
rain 24hr
in
rain mn
in
humidity
%
barometer
mb
20260507165403 57 265 1.0 5.0 0.00 0.00 0.00 68 1020.7
20260507164903 57 240 1.0 5.0 0.00 0.00 0.00 72 1020.7
20260507164402 56 112 2.0 3.0 0.00 0.00 0.00 72 1020.7
20260507163903 55 44 1.0 3.0 0.00 0.00 0.00 73 1020.8
20260507163403 54 205 0.0 1.0 0.00 0.00 0.00 73 1020.8
20260507162403 53 251 0.0 5.0 0.00 0.00 0.00 75 1020.8
20260507161903 53 250 1.0 5.0 0.00 0.00 0.00 74 1020.7
20260507161404 53 250 0.0 0.0 0.00 0.00 0.00 76 1020.7
20260507160902 52 279 0.0 0.0 0.00 0.00 0.00 78 1020.8
20260507160403 52 195 0.0 0.0 0.00 0.00 0.00 78 1020.8
20260507155903 52 242 0.0 3.0 0.00 0.00 0.00 76 1020.7
20260507155402 52 21 0.0 3.0 0.00 0.00 0.00 79 1020.8
20260507154902 51 220 1.0 3.0 0.00 0.00 0.00 77 1020.8
20260507153902 51 277 0.0 2.0 0.00 0.00 0.00 78 1020.8
20260507153403 51 207 0.0 0.0 0.00 0.00 0.00 77 1020.9
20260507152903 51 247 0.0 0.0 0.00 0.00 0.00 79 1020.8
20260507152402 51 234 0.0 1.0 0.00 0.00 0.00 78 1020.8
20260507151903 51 221 0.0 2.0 0.00 0.00 0.00 79 1021.0
20260507151403 51 249 0.0 2.0 0.00 0.00 0.00 79 1020.9
20260507145902 51 292 0.0 2.0 0.00 0.00 0.00 79 1020.7
20260507144903 50 21 0.0 2.0 0.00 0.00 0.00 80 1020.8
20260507144403 50 253 1.0 2.0 0.00 0.00 0.00 79 1020.7
20260507143903 50 268 0.0 2.0 0.00 0.00 0.00 79 1020.7
20260507142902 50 224 0.0 3.0 0.00 0.00 0.00 79 1020.7
20260507142403 50 233 1.0 3.0 0.00 0.00 0.00 79 1020.7
20260507141902 50 269 0.0 2.0 0.00 0.00 0.00 79 1020.7
20260507141402 50 248 0.0 5.0 0.00 0.00 0.00 79 1020.7
20260507140902 50 261 0.0 5.0 0.00 0.00 0.00 80 1020.7
20260507140403 50 210 0.0 5.0 0.00 0.00 0.00 80 1020.6
20260507135902 50 273 0.0 2.0 0.00 0.00 0.00 79 1020.6
20260507135402 50 243 0.0 2.0 0.00 0.00 0.00 80 1020.5
20260507134902 50 248 0.0 0.0 0.00 0.00 0.00 81 1020.5
20260507133903 50 272 0.0 0.0 0.00 0.00 0.00 80 1020.4
20260507132902 50 271 0.0 0.0 0.00 0.00 0.00 80 1020.3
20260507132402 49 318 0.0 0.0 0.00 0.00 0.00 80 1020.4
20260507131403 49 236 0.0 0.0 0.00 0.00 0.00 80 1020.3
20260507130902 50 236 0.0 0.0 0.00 0.00 0.00 80 1020.4
20260507130402 50 201 0.0 0.0 0.00 0.00 0.00 81 1020.4
20260507125402 49 171 0.0 0.0 0.00 0.00 0.00 80 1020.4
20260507124903 49 221 0.0 0.0 0.00 0.00 0.00 81 1020.3
20260507124403 50 221 0.0 3.0 0.00 0.00 0.00 81 1020.3
20260507123903 50 223 0.0 6.0 0.00 0.00 0.00 80 1020.4
20260507123402 50 236 1.0 6.0 0.00 0.00 0.00 80 1020.4
20260507122902 50 245 0.0 0.0 0.00 0.00 0.00 81 1020.4
20260507122403 50 316 0.0 0.0 0.00 0.00 0.00 81 1020.4
20260507121903 50 292 0.0 0.0 0.00 0.00 0.00 80 1020.4
20260507121403 50 301 0.0 0.0 0.00 0.00 0.00 80 1020.4
20260507120902 50 301 0.0 1.0 0.00 0.00 0.00 80 1020.5
20260507120402 50 291 0.0 1.0 0.00 0.00 0.00 80 1020.4
20260507115902 50 269 0.0 1.0 0.00 0.00 0.00 80 1020.5
20260507115402 50 251 0.0 0.0 0.00 0.00 0.00 80 1020.5
20260507114903 50 277 0.0 0.0 0.00 0.00 0.00 80 1020.6
20260507114402 51 152 0.0 0.0 0.00 0.00 0.00 81 1020.6
20260507113903 51 123 0.0 0.0 0.00 0.00 0.00 80 1020.6
20260507113403 51 223 0.0 1.0 0.00 0.00 0.00 80 1020.6
20260507112902 51 226 0.0 3.0 0.00 0.00 0.00 80 1020.6
20260507112402 51 204 1.0 5.0 0.00 0.00 0.00 80 1020.6
20260507111904 51 257 0.0 6.0 0.00 0.00 0.00 80 1020.6
20260507111402 51 232 0.0 6.0 0.00 0.00 0.00 80 1020.5
20260507110902 51 257 1.0 6.0 0.00 0.00 0.00 80 1020.5
20260507110403 51 139 0.0 3.0 0.00 0.00 0.00 80 1020.6
20260507105902 51 322 0.0 3.0 0.00 0.00 0.00 80 1020.6
20260507105403 51 255 1.0 3.0 0.00 0.00 0.00 80 1020.6
20260507104902 51 248 1.0 5.0 0.00 0.00 0.00 80 1020.7
20260507104403 51 243 1.0 5.0 0.00 0.00 0.00 80 1020.7
20260507103402 52 244 0.0 2.0 0.00 0.00 0.00 81 1020.8
20260507102902 52 245 0.0 2.0 0.00 0.00 0.00 81 1020.7
20260507102403 52 230 1.0 2.0 0.00 0.00 0.00 80 1020.7
20260507101902 52 297 1.0 2.0 0.00 0.00 0.00 79 1020.8
20260507101403 52 310 1.0 2.0 0.00 0.00 0.00 80 1020.9
20260507100903 52 255 0.0 2.0 0.00 0.00 0.00 80 1020.9
20260507095902 52 339 0.0 0.0 0.00 0.00 0.00 81 1020.9
20260507094903 52 267 0.0 2.0 0.00 0.00 0.00 81 1021.0
20260507094402 52 147 1.0 2.0 0.00 0.00 0.00 80 1021.0
20260507093903 52 253 1.0 2.0 0.00 0.00 0.00 81 1021.0
20260507092902 53 250 0.0 3.0 0.00 0.00 0.00 81 1021.1
20260507092403 53 242 1.0 3.0 0.00 0.00 0.00 80 1021.1
20260507091903 53 262 1.0 3.0 0.00 0.00 0.00 82 1021.2
20260507091403 53 259 0.0 2.0 0.00 0.00 0.00 81 1021.2
20260507090904 53 254 0.0 3.0 0.00 0.00 0.00 82 1021.2
20260507090403 53 248 0.0 3.0 0.00 0.00 0.00 82 1021.2
20260507085402 53 250 0.0 2.0 0.00 0.00 0.00 82 1021.2
20260507084903 53 259 0.0 3.0 0.00 0.00 0.00 81 1021.1
20260507084403 53 307 1.0 3.0 0.00 0.00 0.00 81 1021.1
20260507083902 53 289 0.0 2.0 0.00 0.00 0.00 81 1021.1
20260507083403 53 222 0.0 2.0 0.00 0.00 0.00 81 1021.1
20260507082903 53 294 0.0 0.0 0.00 0.00 0.00 82 1021.2
20260507082402 53 328 0.0 2.0 0.00 0.00 0.00 81 1021.2
20260507081903 53 313 0.0 2.0 0.00 0.00 0.00 81 1021.2
20260507081402 53 290 1.0 2.0 0.00 0.00 0.00 81 1021.1
20260507080903 53 230 0.0 3.0 0.00 0.00 0.00 82 1021.1
20260507075903 53 262 1.0 2.0 0.00 0.00 0.00 81 1021.1
20260507075403 53 239 0.0 2.0 0.00 0.00 0.00 81 1021.1
20260507074902 53 172 1.0 2.0 0.00 0.00 0.00 81 1021.1
20260507074404 53 316 1.0 5.0 0.00 0.00 0.00 81 1021.2
20260507073902 53 262 1.0 5.0 0.00 0.00 0.00 81 1021.1
20260507073403 52 173 0.0 2.0 0.00 0.00 0.00 82 1021.1
20260507072403 52 283 0.0 3.0 0.00 0.00 0.00 83 1021.0
20260507071902 52 333 0.0 3.0 0.00 0.00 0.00 83 1021.0
20260507071402 52 241 0.0 2.0 0.00 0.00 0.00 83 1021.0
20260507070403 52 303 1.0 2.0 0.00 0.00 0.00 83 1021.0
20260507065902 51 220 0.0 2.0 0.00 0.00 0.00 83 1021.0
20260507065403 52 238 0.0 0.0 0.00 0.00 0.00 83 1021.0
20260507064903 52 238 0.0 0.0 0.00 0.00 0.00 83 1021.0
20260507064402 52 238 0.0 0.0 0.00 0.00 0.00 82 1021.0
20260507063902 52 238 0.0 2.0 0.00 0.00 0.00 82 1021.0
20260507063403 52 238 0.0 2.0 0.00 0.00 0.00 82 1020.9
20260507062903 52 228 0.0 2.0 0.00 0.00 0.00 82 1021.0
20260507061902 52 209 0.0 3.0 0.00 0.00 0.00 81 1021.0
20260507060902 53 273 0.0 2.0 0.00 0.00 0.00 80 1021.0
20260507055903 53 204 0.0 2.0 0.00 0.00 0.00 80 1021.1
20260507054903 54 281 0.0 2.0 0.00 0.00 0.00 79 1021.1
20260507053404 54 204 1.0 3.0 0.00 0.00 0.00 79 1021.0
20260507052902 54 276 1.0 3.0 0.00 0.00 0.00 79 1021.0
20260507052403 54 263 0.0 2.0 0.00 0.00 0.00 78 1021.0
20260507051902 55 267 0.0 5.0 0.00 0.00 0.00 78 1021.0
20260507051403 55 305 0.0 5.0 0.00 0.00 0.00 78 1021.0
20260507050902 55 201 0.0 3.0 0.00 0.00 0.00 77 1021.0
20260507050402 55 169 0.0 2.0 0.00 0.00 0.00 77 1021.0
20260507045902 55 194 0.0 3.0 0.00 0.00 0.00 77 1021.1
20260507044902 56 277 0.0 2.0 0.00 0.00 0.00 76 1021.1
20260507044403 56 286 0.0 3.0 0.00 0.00 0.00 76 1021.1
20260507043903 56 139 1.0 6.0 0.00 0.00 0.00 75 1021.1
20260507043402 56 238 2.0 6.0 0.00 0.00 0.00 75 1021.1
20260507042903 56 143 0.0 5.0 0.00 0.00 0.00 75 1021.0
20260507042402 56 256 0.0 3.0 0.00 0.00 0.00 75 1021.0
20260507041903 56 246 1.0 5.0 0.00 0.00 0.00 75 1021.1
20260507041402 56 217 1.0 5.0 0.00 0.00 0.00 75 1021.1
20260507040903 56 342 1.0 7.0 0.00 0.00 0.00 76 1021.0
20260507040403 56 319 1.0 9.0 0.00 0.00 0.00 75 1021.0
20260507035903 57 238 3.0 9.0 0.00 0.00 0.00 75 1020.9
20260507035403 57 281 1.0 12.0 0.00 0.00 0.00 75 1020.8
20260507034403 57 61 3.0 7.0 0.00 0.00 0.00 75 1020.7
20260507033903 57 247 0.0 3.0 0.00 0.00 0.00 76 1020.5
20260507033403 58 211 0.0 3.0 0.00 0.00 0.00 75 1020.4
20260507032903 58 281 1.0 3.0 0.00 0.00 0.00 75 1020.3
20260507032403 58 234 0.0 7.0 0.00 0.00 0.00 75 1020.3
20260507031903 58 259 1.0 7.0 0.00 0.00 0.00 75 1020.3
20260507031403 58 238 1.0 7.0 0.00 0.00 0.00 75 1020.2
20260507030903 59 283 1.0 5.0 0.00 0.00 0.00 75 1020.1
20260507030403 59 275 1.0 5.0 0.00 0.00 0.00 74 1020.1
20260507025903 59 215 0.0 2.0 0.00 0.00 0.00 74 1020.0
20260507024902 60 236 0.0 5.0 0.00 0.00 0.00 74 1019.8
20260507024402 60 89 0.0 5.0 0.00 0.00 0.00 73 1019.8
20260507023903 60 255 0.0 3.0 0.00 0.00 0.00 75 1019.8
20260507022903 61 207 0.0 2.0 0.00 0.00 0.00 74 1019.8
20260507022403 61 245 0.0 2.0 0.00 0.00 0.00 73 1019.7
20260507021903 61 247 0.0 0.0 0.00 0.00 0.00 72 1019.8
20260507021404 61 246 0.0 5.0 0.00 0.00 0.00 73 1019.7
20260507020903 62 311 0.0 5.0 0.00 0.00 0.00 72 1019.7
20260507015903 62 163 2.0 7.0 0.00 0.00 0.00 72 1019.9
20260507015402 62 355 0.0 5.0 0.00 0.00 0.00 73 1019.9
20260507014402 62 248 0.0 7.0 0.00 0.00 0.00 72 1019.8
20260507013903 62 254 1.0 7.0 0.00 0.00 0.00 71 1019.8
20260507012902 63 220 1.0 5.0 0.00 0.00 0.00 72 1020.0
20260507012403 63 243 1.0 5.0 0.00 0.00 0.00 70 1020.0
20260507011903 63 278 2.0 7.0 0.00 0.00 0.00 71 1019.9
20260507011402 63 224 3.0 7.0 0.00 0.00 0.00 69 1019.9
20260507005903 64 275 0.0 5.0 0.00 0.00 0.00 69 1019.9
20260507005402 64 218 1.0 5.0 0.00 0.00 0.00 68 1019.9
20260507004903 64 280 1.0 5.0 0.00 0.00 0.00 68 1019.8
20260507004403 65 238 0.0 3.0 0.00 0.00 0.00 69 1019.8
20260507003403 66 300 1.0 3.0 0.00 0.00 0.00 68 1019.8
20260507002902 66 256 0.0 5.0 0.00 0.00 0.00 68 1019.7
20260507002402 66 236 1.0 5.0 0.00 0.00 0.00 70 1019.7
20260507001403 65 208 2.0 6.0 0.00 0.00 0.00 70 1019.7
20260507000903 65 236 1.0 5.0 0.00 0.00 0.00 68 1019.8
20260507000405 65 74 0.0 2.0 0.00 0.00 0.00 70 1019.8
20260506235902 65 38 0.0 2.0 0.00 0.00 0.00 70 1019.7
20260506235402 65 272 1.0 2.0 0.00 0.00 0.00 71 1019.7
20260506234403 65 140 0.0 3.0 0.00 0.00 0.00 69 1019.7
20260506233903 65 254 0.0 3.0 0.00 0.00 0.00 70 1019.8
20260506233402 65 222 1.0 3.0 0.00 0.00 0.00 71 1019.8
20260506232904 65 64 1.0 2.0 0.00 0.00 0.00 70 1019.8
20260506231903 65 241 1.0 5.0 0.00 0.00 0.00 70 1019.8
20260506231402 66 284 2.0 5.0 0.00 0.00 0.00 70 1019.9
20260506230902 66 38 0.0 3.0 0.00 0.00 0.00 70 1019.9
20260506230402 66 251 0.0 3.0 0.00 0.00 0.00 69 1019.9
20260506225902 66 224 1.0 3.0 0.00 0.00 0.00 69 1020.0
20260506225403 66 252 1.0 3.0 0.00 0.00 0.00 67 1020.0
20260506224903 66 89 0.0 2.0 0.00 0.00 0.00 69 1020.1
20260506223902 65 11 0.0 2.0 0.00 0.00 0.00 70 1020.2
20260506223402 65 248 0.0 2.0 0.00 0.00 0.00 72 1020.2
20260506222903 65 220 1.0 2.0 0.00 0.00 0.00 70 1020.3
20260506222403 65 41 0.0 2.0 0.00 0.00 0.00 70 1020.3
20260506221903 65 41 0.0 2.0 0.00 0.00 0.00 69 1020.3
20260506221403 65 212 0.0 2.0 0.00 0.00 0.00 71 1020.3
20260506220902 65 288 0.0 3.0 0.00 0.00 0.00 72 1020.3
20260506220403 65 53 1.0 5.0 0.00 0.00 0.00 69 1020.4
20260506215902 65 34 2.0 5.0 0.00 0.00 0.00 69 1020.3
20260506215403 65 167 0.0 3.0 0.00 0.00 0.00 69 1020.4
20260506214902 65 19 0.0 3.0 0.00 0.00 0.00 69 1020.4
20260506214403 65 321 1.0 3.0 0.00 0.00 0.00 69 1020.3
20260506213903 65 49 0.0 3.0 0.00 0.00 0.00 69 1020.3
20260506213403 65 265 2.0 3.0 0.00 0.00 0.00 68 1020.4
20260506212903 65 129 1.0 3.0 0.00 0.00 0.00 69 1020.4
20260506212402 65 27 1.0 2.0 0.00 0.00 0.00 71 1020.5
20260506211902 65 9 0.0 2.0 0.00 0.00 0.00 72 1020.7
20260506210903 64 159 0.0 3.0 0.00 0.00 0.00 71 1020.7
20260506210403 64 35 1.0 3.0 0.00 0.00 0.00 73 1020.7
20260506205903 64 22 1.0 3.0 0.00 0.00 0.00 71 1020.7
20260506204902 64 286 0.0 2.0 0.00 0.00 0.00 71 1020.8
20260506204403 64 161 0.0 3.0 0.00 0.00 0.00 73 1020.7
20260506203903 63 272 0.0 3.0 0.00 0.00 0.00 73 1020.8
20260506203402 63 14 1.0 3.0 0.00 0.00 0.00 75 1020.8
20260506202903 63 264 1.0 3.0 0.00 0.00 0.00 74 1020.6
20260506202403 63 349 0.0 3.0 0.00 0.00 0.00 74 1020.7
20260506201903 63 170 0.0 2.0 0.00 0.00 0.00 73 1020.7
20260506201403 63 19 1.0 2.0 0.00 0.00 0.00 74 1020.7
20260506200902 62 300 0.0 2.0 0.00 0.00 0.00 74 1020.7
20260506200402 62 259 0.0 2.0 0.00 0.00 0.00 73 1020.8
20260506195903 62 276 0.0 5.0 0.00 0.00 0.00 72 1020.9
20260506195402 63 271 1.0 5.0 0.00 0.00 0.00 73 1020.9
20260506193402 63 257 1.0 3.0 0.00 0.00 0.00 73 1021.1
20260506192902 63 276 1.0 3.0 0.00 0.00 0.00 73 1021.1
20260506191903 62 276 1.0 5.0 0.00 0.00 0.00 75 1021.0
20260506191403 62 196 3.0 5.0 0.00 0.00 0.00 74 1021.0
20260506190403 62 348 0.0 3.0 0.00 0.00 0.00 76 1021.0
20260506185403 62 15 0.0 6.0 0.00 0.00 0.00 76 1020.9
20260506184403 61 261 0.0 6.0 0.00 0.00 0.00 77 1020.9
20260506183903 61 275 0.0 2.0 0.00 0.00 0.00 77 1020.9
20260506183403 61 296 1.0 2.0 0.00 0.00 0.00 78 1020.9
20260506182903 61 287 0.0 2.0 0.00 0.00 0.00 76 1020.8
20260506182403 61 225 1.0 2.0 0.00 0.00 0.00 78 1020.7
20260506181903 61 18 0.0 2.0 0.00 0.00 0.00 78 1020.9
20260506181403 60 234 0.0 2.0 0.00 0.00 0.00 78 1020.8
20260506180403 60 251 0.0 5.0 0.00 0.00 0.00 78 1020.7
20260506175903 60 282 0.0 5.0 0.00 0.00 0.00 79 1020.7
20260506175403 60 205 0.0 2.0 0.00 0.00 0.00 79 1020.8
20260506174903 59 203 1.0 3.0 0.00 0.00 0.00 78 1020.8
20260506173403 59 218 1.0 2.0 0.00 0.00 0.00 78 1020.7
20260506172903 59 248 0.0 2.0 0.00 0.00 0.00 80 1020.6
20260506172402 59 238 0.0 2.0 0.00 0.00 0.00 79 1020.5
20260506171904 59 306 1.0 3.0 0.00 0.00 0.00 79 1020.6
20260506171403 58 54 0.0 5.0 0.00 0.00 0.00 81 1020.5
20260506170403 58 30 1.0 5.0 0.00 0.00 0.00 80 1020.6